Dewpoint
65 70 76 76 74 73 75 73 71 71 72 72 73 72 70 69 68 69 70 72 72 72 72 73 73 73 73 73 73 73 73 72 72 72 72 73 73 73 72 73 73 70 73
67 70 75 76 75 74 75 74 72 71 71 73 73 73 70 70 68 68 69 69 71 71 72 72 72 73 73 72 72 72 72 72 72 72 72 73 72 73 72 73 73 72 72
67 71 74 75 76 74 75 74 72 71 71 73 73 73 71 69 68 68 69 69 71 71 72 72 72 72 72 72 72 71 70 71 70 70 70 69 70 73 72 73 73 73 72
68 72 74 75 75 75 74 73 72 70 71 72 73 72 70 68 69 68 68 69 70 71 72 72 72 72 72 72 72 71 71 70 70 69 66 67 68 72 72 72 71 72 71
69 72 74 75 74 75 74 73 73 70 70 71 72 71 70 68 68 68 68 69 71 71 72 71 71 71 71 72 71 71 71 70 70 69 67 66 68 70 71 71 71 71 71
69 71 74 75 74 75 74 73 73 71 70 70 72 71 71 68 68 68 68 68 70 70 71 71 71 71 71 71 70 71 71 71 69 68 68 69 67 69 70 70 71 71 71
70 71 74 75 74 74 73 73 73 72 71 71 72 72 70 69 68 68 68 68 69 68 70 70 70 70 70 70 70 71 70 70 67 67 67 68 68 69 68 69 69 70 70
70 71 73 73 74 74 73 73 73 72 71 71 72 72 71 69 68 68 68 68 67 68 69 69 69 69 70 70 70 70 69 67 66 67 68 68 69 69 69 68 68 69 69
71 72 70 69 71 72 73 73 73 72 72 71 72 72 71 69 68 67 67 68 68 68 69 69 68 69 70 69 69 68 68 66 62 64 66 66 69 68 69 68 68 68 67
68 65 64 64 64 65 69 72 73 72 72 72 72 72 70 71 69 67 66 68 69 69 69 69 67 68 68 68 67 66 65 64 60 62 64 65 67 66 66 65 65 66 67
66 63 63 63 64 64 65 66 72 72 72 72 72 72 70 68 67 66 66 67 68 68 68 67 67 67 66 66 65 64 62 59 60 60 61 65 64 64 64 63 63 63 63
64 64 63 63 64 64 64 64 64 70 69 68 69 68 68 67 66 66 67 67 68 67 68 67 66 66 62 59 60 61 58 59 59 60 60 65 63 63 63 63 62 62 62
63 64 63 62 63 65 64 64 63 66 68 68 68 68 66 65 66 66 65 61 63 65 62 63 58 57 57 57 57 58 58 59 59 60 62 64 63 62 62 62 62 61 61
61 62 62 61 62 63 63 63 63 66 68 68 68 67 65 65 64 63 61 57 58 59 57 56 55 56 56 56 56 57 57 58 59 59 60 64 62 62 62 61 61 60 59
57 58 57 60 61 62 63 65 65 67 68 68 67 66 65 64 63 61 58 57 57 56 56 55 55 55 56 56 56 56 56 57 58 59 60 63 63 61 60 60 60 60 59
55 56 59 61 63 64 65 64 66 67 68 67 67 66 65 63 62 60 57 56 56 55 53 53 54 55 55 56 56 56 56 56 57 57 58 60 62 61 60 59 59 59 58
50 57 60 60 64 62 65 63 63 66 67 66 66 65 64 62 61 59 56 55 53 50 49 53 53 54 54 55 54 54 55 54 54 54 55 56 58 62 60 58 58 58 58
49 57 61 61 64 63 64 62 63 65 65 66 65 65 63 62 60 57 54 53 47 46 50 52 53 53 53 54 53 53 53 52 51 51 52 52 53 55 60 60 57 57 57
49 54 59 62 63 62 62 63 63 63 65 66 64 64 63 61 59 55 53 50 45 43 50 51 51 53 52 52 52 51 50 50 50 50 50 52 52 52 54 60 60 58 56
50 55 61 62 62 62 63 63 62 63 65 65 64 63 62 62 59 54 51 46 44 44 47 49 49 47 52 51 50 46 47 47 49 49 49 50 50 49 49 50 51 55 55
53 62 62 61 61 63 62 62 61 61 64 64 64 62 61 62 60 52 48 43 43 43 46 47 46 47 44 46 44 42 41 42 45 46 45 46 46 47 47 48 48 49 50
52 60 62 63 63 63 63 62 63 62 64 61 60 58 60 60 59 53 45 42 42 42 42 44 45 42 41 43 43 42 41 41 39 42 43 44 43 42 45 44 46 47 47
52 59 61 62 63 64 63 63 62 60 60 58 58 56 55 56 53 53 44 42 41 41 42 42 43 42 42 41 41 39 36 37 38 39 39 42 43 42 42 44 44 46 44
53 60 62 61 61 62 63 62 61 60 57 56 55 55 55 55 54 51 45 40 40 42 40 40 42 42 43 42 41 41 40 39 37 37 39 39 41 41 42 43 43 44 45
58 59 59 59 60 61 61 61 60 58 57 58 55 53 54 54 54 52 49 41 40 42 40 40 41 41 41 42 42 42 41 40 38 38 37 38 39 39 40 41 42 41 44
58 57 57 57 57 59 59 59 58 56 55 54 54 53 53 52 52 52 50 48 46 44 43 43 43 43 44 45 45 44 42 40 40 39 37 38 39 40 39 39 38 38 41
Lifted_Index
-0 -2 -4 -5 -4 -4 -3 -3 -1 -1 -1 -1 -1 -0 1 2 2 2 1 1 0 -0 -0 -1 -1 -1 -1 -1 -1 -1 -0 -0 0 -0 -0 -1 -1 -1 -1 -1 -1 -1 -1
-1 -3 -4 -5 -4 -4 -4 -3 -2 -1 -1 -1 -2 -1 0 1 2 2 2 1 0 -0 -0 -1 -1 -1 -1 -1 -0 -0 0 0 1 1 0 -0 -1 -1 -1 -1 -1 -1 -1
-1 -3 -5 -5 -5 -4 -4 -3 -2 -1 -1 -2 -2 -2 -0 1 2 2 2 1 1 0 -0 -1 -1 -1 -0 -0 -0 0 1 1 1 2 1 1 0 -0 -0 -0 -1 -0 -0
-2 -4 -5 -5 -5 -5 -4 -4 -2 -2 -1 -2 -2 -2 -0 1 1 2 2 1 1 0 -0 -0 -0 -0 -0 -0 0 1 1 1 2 2 2 2 1 0 0 0 -0 -0 -0
-3 -4 -5 -5 -5 -5 -4 -4 -3 -2 -1 -2 -2 -2 -1 0 1 2 2 1 1 0 -0 -0 0 0 0 0 0 1 1 1 2 2 3 2 2 1 1 1 0 0 0
-4 -5 -6 -6 -5 -5 -4 -4 -3 -2 -2 -2 -2 -2 -1 0 1 1 2 1 1 0 0 0 1 1 1 1 1 1 1 2 2 2 2 2 2 2 2 1 1 1 0
-5 -6 -6 -6 -6 -6 -5 -4 -4 -3 -2 -2 -3 -2 -1 -0 1 1 1 1 1 1 1 1 1 1 1 1 1 1 2 2 2 2 2 2 2 2 2 2 2 1 1
-6 -6 -6 -6 -6 -6 -5 -5 -4 -3 -2 -2 -3 -3 -2 -1 0 1 1 2 2 2 1 1 2 2 2 2 2 2 3 3 3 2 2 2 2 2 3 2 2 2 2
-7 -7 -6 -6 -5 -5 -5 -5 -4 -4 -3 -3 -3 -2 -2 -1 0 1 2 1 1 1 1 2 2 2 2 2 3 3 4 4 3 3 3 3 3 3 3 3 3 3 3
-8 -7 -6 -5 -5 -4 -5 -5 -4 -4 -4 -3 -3 -3 -2 -1 0 1 2 1 1 1 1 2 2 3 3 3 4 4 5 5 5 4 4 4 4 4 4 4 4 4 4
-7 -6 -5 -5 -4 -4 -3 -4 -4 -4 -4 -4 -3 -3 -2 -1 0 1 2 2 1 1 2 2 3 3 4 4 5 5 6 6 6 6 5 5 5 5 5 6 6 6 6
-6 -5 -5 -4 -3 -3 -2 -3 -2 -2 -3 -3 -3 -3 -2 -1 0 1 2 2 1 1 2 3 4 5 5 6 6 7 7 7 7 6 6 6 6 6 6 6 6 7 7
-4 -4 -4 -3 -2 -1 -1 -1 0 -0 -2 -3 -3 -3 -2 -1 0 1 2 2 2 2 2 4 5 7 7 7 7 7 7 7 7 6 6 6 6 6 7 7 7 7 7
-3 -3 -3 -2 -1 -0 1 1 2 1 -1 -2 -3 -3 -2 -1 0 1 3 3 3 3 3 5 7 8 8 7 7 7 7 7 7 7 6 6 6 7 7 7 8 8 8
-0 -1 -2 -2 -1 -0 0 1 1 0 -1 -2 -3 -3 -2 -1 0 2 3 4 3 3 4 6 7 8 8 7 7 7 7 7 7 7 7 6 6 7 7 8 8 8 9
1 0 -1 -1 -1 -1 -0 -0 0 -0 -1 -2 -3 -3 -3 -1 0 2 4 5 4 4 5 6 7 7 7 7 7 7 7 7 7 7 7 7 7 7 8 8 8 9 9
2 1 -0 -1 -1 -1 -1 -0 1 0 -0 -1 -2 -3 -3 -1 0 3 5 5 4 5 5 6 6 7 7 7 7 7 7 7 7 7 7 7 7 7 8 8 9 9 9
3 1 -0 -1 -1 -1 -0 1 1 2 1 -0 -2 -3 -2 -1 0 3 5 5 5 5 5 6 6 6 7 7 7 7 7 8 8 8 8 8 8 8 8 8 8 9 9
2 1 -1 -2 -2 -1 0 1 2 2 1 0 -1 -2 -2 -1 0 3 5 6 5 5 5 5 5 6 7 7 8 8 8 8 8 9 9 9 9 9 9 8 9 9 9
1 -0 -2 -2 -2 -1 -0 1 2 2 1 0 -1 -2 -2 -1 0 3 6 6 6 6 5 5 5 6 7 8 8 8 8 9 9 10 10 10 10 10 10 10 9 9 9
-1 -2 -3 -3 -3 -2 -1 0 1 2 1 0 -0 -1 -2 -1 1 4 6 7 7 6 6 5 5 6 7 8 9 9 9 10 10 11 11 12 12 12 11 11 11 10 10
-2 -3 -3 -3 -3 -3 -2 -0 0 1 0 0 0 -0 -1 -1 1 3 6 7 7 7 6 6 6 6 7 8 9 10 10 11 11 11 12 12 12 12 13 12 12 12 12
-2 -3 -3 -3 -3 -3 -2 -1 -1 -0 -0 0 0 -0 -0 -0 0 2 5 6 7 7 7 6 6 7 8 9 10 11 11 12 12 12 12 12 12 12 13 13 13 13 13
-1 -2 -3 -3 -3 -3 -3 -2 -2 -1 -1 -0 0 1 1 0 1 2 4 5 7 7 8 7 8 8 9 9 10 11 11 12 12 12 12 12 12 12 12 12 13 13 13
-1 -1 -2 -2 -2 -3 -3 -3 -2 -2 -1 -0 1 2 2 1 2 2 3 5 7 8 9 9 9 9 9 10 11 11 11 11 11 11 11 12 12 12 12 12 12 12 12
-1 -1 -1 -2 -2 -3 -3 -3 -3 -2 -1 0 2 2 2 1 2 3 3 5 7 9 10 10 10 10 10 10 11 11 11 11 11 11 11 11 11 12 12 11 12 12 12